User: anonymous   Login
Location: Unspecified
(0.0000°N, 0.0000°E)
Time: 12:21:45
(UTC+00:00)
Language:

DSP F14 - Orbit

View from above orbital plane
View from above orbital plane
View from above satellite
View from above satellite

Ground track
Ground track

The orbit data is extracted from the following two-line orbital elements,

1 20066U 89046A   17093.55532215 0.00000000  00000-0  00000-0 0    02
2 20066  14.7166   8.3177 0003578 237.2716 122.7059  0.98820701    09
Epoch (UTC): 03 April 2017 13:19:39
Eccentricity: 0.0003578
inclination: 14.7166°
perigee height: 36183 km
apogee height: 36213 km
right ascension of ascending node: 8.3177°
argument of perigee: 237.2716°
revolutions per day: 0.98820701
mean anomaly at epoch: 122.7059°
orbit number at epoch: 0

The dashed part of the orbit path shows where the satellite is in the earth's shadow,  

DLR